TimeCST,TemperatureF,Dew PointF,Humidity,Sea Level PressureIn,VisibilityMPH,Wind Direction,Wind SpeedMPH,Gust SpeedMPH,PrecipitationIn,Events,Conditions,WindDirDegrees,DateUTC
12:53 AM,57.0,48.0,72,30.27,10.0,ENE,9.2,-,N/A,,Clear,60,2012-11-19 06:53:00
1:53 AM,57.0,48.0,72,30.26,10.0,ENE,11.5,-,N/A,,Clear,70,2012-11-19 07:53:00
2:53 AM,55.9,48.0,75,30.25,10.0,ENE,11.5,-,N/A,,Clear,70,2012-11-19 08:53:00
3:53 AM,55.9,48.0,75,30.23,10.0,East,11.5,-,N/A,,Clear,80,2012-11-19 09:53:00
4:53 AM,55.0,48.0,77,30.24,10.0,East,9.2,-,N/A,,Clear,80,2012-11-19 10:53:00
5:53 AM,55.9,46.9,72,30.25,10.0,ENE,10.4,-,N/A,,Clear,60,2012-11-19 11:53:00
6:53 AM,55.9,48.0,75,30.26,10.0,ENE,11.5,-,N/A,,Clear,60,2012-11-19 12:53:00
7:53 AM,57.0,48.0,72,30.27,10.0,ENE,8.1,-,N/A,,Clear,70,2012-11-19 13:53:00
8:53 AM,59.0,48.0,67,30.28,10.0,ENE,8.1,-,N/A,,Clear,70,2012-11-19 14:53:00
9:53 AM,61.0,50.0,67,30.28,10.0,NE,6.9,-,N/A,,Clear,50,2012-11-19 15:53:00
10:53 AM,63.0,50.0,63,30.28,10.0,NNE,8.1,-,N/A,,Clear,20,2012-11-19 16:53:00
11:53 AM,64.9,50.0,58,30.25,10.0,NNE,5.8,-,N/A,,Clear,20,2012-11-19 17:53:00
12:53 PM,66.0,52.0,60,30.22,10.0,NNW,8.1,-,N/A,,Clear,340,2012-11-19 18:53:00
1:53 PM,64.9,53.1,65,30.20,10.0,NW,6.9,-,N/A,,Clear,320,2012-11-19 19:53:00
2:53 PM,64.9,54.0,68,30.18,10.0,NW,4.6,-,N/A,,Clear,310,2012-11-19 20:53:00
3:53 PM,64.0,53.1,67,30.17,10.0,NW,4.6,-,N/A,,Clear,310,2012-11-19 21:53:00
4:53 PM,63.0,52.0,67,30.16,10.0,Calm,Calm,-,N/A,,Clear,0,2012-11-19 22:53:00
5:53 PM,63.0,50.0,63,30.18,10.0,Calm,Calm,-,N/A,,Clear,0,2012-11-19 23:53:00
6:53 PM,62.1,48.0,60,30.19,10.0,Calm,Calm,-,N/A,,Clear,0,2012-11-20 00:53:00
7:53 PM,62.1,50.0,65,30.19,10.0,Calm,Calm,-,N/A,,Clear,0,2012-11-20 01:53:00
8:53 PM,60.1,54.0,80,30.19,10.0,NNW,3.5,-,N/A,,Clear,340,2012-11-20 02:53:00
9:53 PM,60.1,57.0,90,30.19,10.0,Calm,Calm,-,N/A,,Clear,0,2012-11-20 03:53:00
10:53 PM,60.1,57.0,90,30.19,10.0,WNW,3.5,-,N/A,,Clear,300,2012-11-20 04:53:00
11:53 PM,60.1,57.0,90,30.17,10.0,Calm,Calm,-,N/A,,Clear,0,2012-11-20 05:53:00